Regional Weather Roundup
Issued by NWS Charleston, SC

Current Version | Previous Version | Graphics & Text | Print | Product List | Glossary On
Versions: 1 2 3 4 5 6 7 8 9 10 11 12 13 14 15 16 17 18 19 20 21 22 23 24 25 26 27 28 29 30 31 32 33 34 35 36 37 38 39 40 41 42 43 44 45 46 47 48 49 50
000
ASUS42 KCHS 051712
RWRCHS

REGIONAL WEATHER ROUNDUP
NATIONAL WEATHER SERVICE CHARLESTON SC
100 PM EDT SUN JUL 05 2015

NOTE: "FAIR" INDICATES FEW OR NO CLOUDS BELOW 12,000 FEET WITH NO
SIGNIFICANT WEATHER AND/OR OBSTRUCTIONS TO VISIBILITY.

NOT ALL STATIONS ARE QUALITY CONTROLLED BY THE NATIONAL
WEATHER SERVICE. USE DATA WITH CAUTION...ESPECIALLY
DEWPOINT OBSERVATIONS.

SCZ027-030-031-034>040-042>050-051800-
...SOUTHEAST SOUTH CAROLINA...

CITY           SKY/WX    TMP DP  RH WIND       PRES   REMARKS
N CHARLESTON   MOSUNNY   87  71  58 S7        30.14F HX  93
WATERFRONT PAR   N/A     85  74  69 SW5       30.13F HX  93
MOUNT PLEASANT LGT RAIN  88  72  58 W7        30.15S HX  94
JOHNS ISLAND   FAIR      86  75  70 S12       30.15S HX  95
PINOPOLIS      NOT AVBL
MONCKS CORNER  FAIR      90  72  55 SW10      30.13F HX  96
SUMMERVILLE    NOT AVBL
BEAUFORT MCAS  MOSUNNY   90  74  59 S5        30.13F THUNDER HX  99
BEAUFORT ARPT  FAIR      88  73  62 S6        30.13F HX  96
HILTON HEAD IS NOT AVBL
WALTERBORO     PTSUNNY   86  72  62 S8        30.14F HX  92
ALLENDALE      FAIR      88  70  55 VRB6      30.12F HX  92

...SOUTHERN MIDLANDS AND PEE DEE...

CITY           SKY/WX    TMP DP  RH WIND       PRES   REMARKS
GEORGETOWN     NOT AVBL
KINGSTREE      NOT AVBL
ORANGEBURG     SUNNY     88  68  51 VRB5      30.13F HX  91
BARNWELL       FAIR      90  70  51 W7        30.14F HX  95
AIKEN          NOT AVBL
MANNING        FAIR      86  64  48 S3        30.13S
COLUMBIA       MOSUNNY   88  65  46 SW10      30.11F HX  90
SUMTER         MOSUNNY   87  68  52 VRB3      30.11F HX  91
FLORENCE       MOSUNNY   87  71  58 S7        30.12F HX  93
MYRTLE BEACH   MOSUNNY   86  72  62 S14       30.16  HX  92
N MYRTLE BEACH SUNNY     84  73  69 S13       30.15S HX  90

$$

GAZ063-065-086>088-099>101-113>116-118-119-134>141-150-051800-
...SOUTHEAST GEORGIA...

CITY           SKY/WX    TMP DP  RH WIND       PRES   REMARKS
SAVANNAH ARPT  PTSUNNY   89  72  56 SW9       30.12F THUNDER HX  96
HUNTER AAF     MOSUNNY   89  76  65 VRB5      30.11F HX 100
FORT STEWART   MOSUNNY   87  73  62 SW8       30.11F HX  94
STATESBORO     NOT AVBL
SYLVANIA       MOSUNNY   89  74  59 NW6       30.14F HX  98
CLAXTON        FAIR      88  72  58 SW7       30.13F HX  94

...CSRA...CENTRAL AND FAR SOUTHEAST GEORGIA...

CITY           SKY/WX    TMP DP  RH WIND       PRES   REMARKS
THOMSON        MOSUNNY   87  72  60 S9        30.17F HX  93
AUGUSTA-BUSH   SUNNY     87  68  52 SW13      30.11F HX  90
AUGUSTA-DANIEL SUNNY     87  68  52 SW8       30.13F HX  90
SWAINSBORO     FAIR      88  72  58 W7        30.15F HX  94
VIDALIA        PTSUNNY   88  70  55 W6        30.15S HX  92
EASTMAN        FAIR      84  70  61 W7        30.17F
HAZLEHURST     PTSUNNY   88  71  56 CALM      30.13F HX  93
ALMA           MOSUNNY   88  72  58 VRB3      30.13F HX  94
WAYCROSS       PTSUNNY   91  75  61 NW13      30.15S THUNDER HX 101
JESUP          FAIR      90  73  58 SW5       30.14F HX  98
BAXLEY         FAIR      88  73  62 SW7       30.13F HX  96
BRUNSWICK      MOSUNNY   90  73  58 SW7       30.15F HX  98
SAINT SIMONS   SUNNY     85  75  72 SE6       30.15F HX  93

$$

SCZ027-028-034-036>038-045-046-048>050-GAZ119-141-051800-
...LAKE AND SUPPLEMENTAL COASTAL OBSERVATIONS...

STATION/POSITION TIME  TEMP    WIND        PRES    WAVE   SWELL
                       AIR SEA DIR/SP/G            HT/PER HT/PER/DIR
                 (UTC) (F)     (DEG/KT/KT) (MB)    (FT/S) (FT/S/D)
UPR LAKE MARION  NOT AVBL
WINYAH BAY       1545   84     200/  8     1020.0
LAKE MURRAY      1600   81     170/  5/  6 1019.6S
ACE BASIN NERRS  NOT AVBL
FORT PULASKI     1600   85 83  200/  6/  9 1021.5F
SAPELO ISLAND    1600   87     220/  6     1021.0F

$$

ANZ835-935-AMZ111-154-330-350-352-354-370-450-454-472-051800-
...C-MAN AND BUOY OBSERVATIONS...

STATION/POSITION TIME  TEMP    WIND        PRES    WAVE   SWELL
                       AIR SEA DIR/SP/G            HT/PER HT/PER/DIR
                 (UTC) (F)     (DEG/KT/KT) (MB)    (FT/S) (FT/S/D)
BUOY 41004       1650   81 82  230/ 10/ 12 1021.2R   3/ 9   2/ 9
BUOY 41008       1650   78 79  170/  8/ 10 1021.3F   2/10   2/100/10
FOLLY BEACH CMAN 1600   81     210/ 10/ 11 1021.3F
CAPERS NEARSHORE 1608   82     240/ 12/ 14 1021.5S
FRIPP NEARSHORE  1600   82     220/ 12/ 14 1021.0F


STATION/POSITION TIME  TEMP    WIND        PRES    WAVE   SWELL
                       AIR SEA DIR/SP/G            HT/PER HT/PER/DIR
                 (UTC) (F)     (DEG/KT/KT) (MB)    (FT/S) (FT/S/D)
5E ST. MARYS GA  1621      79                N/A     2/ 9
FRYING PAN BUOY  1650   81 79  210/  8/  8 1021.7R   3/ 9   2/130/ 9
BUOY 41025       1650   80 81  230/ 14/ 16 1020.8S   3/ 5   2/140/ 9
CAPE LOOKOUT NC  1600   82     220/ 11/ 13 1020.9R
BUOY 41002       1650   79 80  210/ 12/ 14 1024.2S   4/ 9   3/130/ 9
BUOY 41010       1620   84 85  150/  6/  8 1023.2R
ST AUGUSTINE FL  1700   77 71  130/  7/  8 1022.1F


$$



USA.gov is the U.S. government's official web portal to all federal, state and local government web resources and services.